Regional Weather Roundup
Issued by NWS Wilmington, NC

Current Version | Previous Version | Text Only | Print | Product List | Glossary On
Versions: 1 2 3 4 5 6 7 8 9 10 11 12 13 14 15 16 17 18 19 20 21 22 23 24 25 26 27 28 29 30 31 32 33 34 35 36 37 38 39 40 41 42 43 44 45 46 47 48 49 50
000
ASUS42 KILM 251210
RWRILM
RWRILM
REGIONAL HOURLY WEATHER ROUNDUP
NATIONAL WEATHER SERVICE WILMINGTON NC
800 AM EDT FRI JUL 25 2014

NOTE: "FAIR" INDICATES FEW OR NO CLOUDS BELOW 12,000 FEET WITH NO
SIGNIFICANT WEATHER AND/OR OBSTRUCTIONS TO VISIBILITY.

...............WFO WILMINGTON COUNTY WARNING AREA...............

......COASTAL NC AND SC COUNTIES......

CITY           SKY/WX    TMP DP  RH WIND       PRES   REMARKS
WILMINGTON     FOG       72  71  97 NE10      30.00R VSB 3/4
SOUTHPORT      SUNNY     74  73  94 N3        29.99R
N MYRTLE BEACH SUNNY     76  73  91 NW3       29.97S
MYRTLE BEACH   SUNNY     75  73  94 CALM      29.98R

......INLAND NC AND SC COUNTIES.......

CITY           SKY/WX    TMP DP  RH WIND       PRES   REMARKS
LUMBERTON      CLOUDY    71  67  87 N10       30.02R
ELIZABETHTOWN  CLOUDY    69  69 100 CALM      30.02R
WHITEVILLE     CLOUDY    71  70  97 NE5       30.01R FOG
FLORENCE       FOG       73  71  93 N10       30.01R VSB 1
DARLINGTON     CLOUDY    73  68  83 N7        30.04R

....................REST OF NORTH CAROLINA......................

.........EASTERN NC.........

CITY           SKY/WX    TMP DP  RH WIND       PRES   REMARKS
CAPE HATTERAS  PTSUNNY   74  71  91 VRB6      30.00R
JACKSONVILLE   CLOUDY    66  64  94 N8        30.03R
MOREHEAD CITY  CLOUDY    70  69  97 N8        30.02R FOG
KENANSVILLE    CLOUDY    68  66  94 N6        30.04R
NEW BERN       CLOUDY    70  67  90 NE6       30.04R
ELIZABETH CITY SUNNY     73  69  87 NW8       30.02R

.........CENTRAL NC.........

CITY           SKY/WX    TMP DP  RH WIND       PRES   REMARKS
RALEIGH DURHAM FOG       69  66  90 NE7       30.06R VSB 1
ROCKY MOUNT    CLOUDY    69  68  96 N7        30.04R FOG
ROANOKE RAPIDS NOT AVBL
FAYETTEVILLE   MOSUNNY   70  67  90 N8        30.03R
HOFFMAN        PTSUNNY   71  67  86 NE7       30.05R

.........WESTERN NC.........

CITY           SKY/WX    TMP DP  RH WIND       PRES   REMARKS
CHARLOTTE      CLOUDY    69  64  84 NE6       30.06R
GREENSBORO     CLOUDY    69  66  90 E6        30.07R
HICKORY        NOT AVBL
BOONE          NOT AVBL
ASHEVILLE      NOT AVBL

.....................REST OF SOUTH CAROLINA.....................

.........EASTERN SC.........

CITY           SKY/WX    TMP DP  RH WIND       PRES   REMARKS
CHARLESTON     MOSUNNY   80  73  79 W8        30.00R
BEAUFORT MCAS  MOSUNNY   80  73  79 W9        30.01R
HILTON HEAD    NOT AVBL

.........CENTRAL SC.........

CITY           SKY/WX    TMP DP  RH WIND       PRES   REMARKS
COLUMBIA       MOSUNNY   78  69  73 NE6       30.01R
ORANGEBURG     SUNNY     77  72  84 CALM      30.00R
SUMTER SHAW    PTSUNNY   73  72  96 NE6       29.99R

.........WESTERN SC.........

CITY           SKY/WX    TMP DP  RH WIND       PRES   REMARKS
GREENVILLE     NOT AVBL
ROCK HILL      CLOUDY    68  65  90 VRB5      30.06R
ANDERSON       SUNNY     72  68  87 NE9       30.04R
CLEMSON        NOT AVBL
GREENWOOD      CLOUDY    72  69  90 NE8       30.05R


...................COASTAL AND OFFSHORE REPORTS..................

................LOCAL PIERS AND NC RESERVE................


STATION/POSITION TIME  SKY/WX   TEMP    WIND        PRES    VSBY
                                AIR SEA DIR/SP/G
                 (UTC)          (F)     (DEG/KT/KT) (MB)    (MI)
JOHNY MRCER PIER 1200            72 83   30/  8/  9 1015.3R
NC RESRV MASNBRO 1100            72        CALM     1015.0R
OCEAN CREST PIER 1200            76 83  360/  4/  5 1014.3S
SPRINGMAID  PIER 1200            77 83  180/  1/  2 1015.0F


................COASTAL AND OFFSHORE BUOYS................


STATION/POSITION TIME  SKY/WX   TEMP    WIND        PRES    VSBY
                                AIR SEA DIR/SP/G
                 (UTC)          (F)     (DEG/KT/KT) (MB)    (MI)
DIMNDSHOAL 41025 1200                   VRB 12/ 14  1015.6R
WVE H/P(F/S)=  3/ 7 WND WVE H/P(F/S)=  2/ 3 SWL H/P/D(F/S/D)=  2/160/ 7

CAPE LOOKOUT     1100            71     350/ 10/ 14 1015.5R
ONSLOW BAY 41036 1200            78 81  330/ 10/ 17 1016.0R
WVE H/P(F/S)=  4/ 6 WND WVE H/P(F/S)=  2/ 5 SWL H/P/D(F/S/D)=  3/190/ 6

5 WRITEBCH 41038 1100            72 81  290/ 10/ 12   N/A
MASONBORO  41110 1200               81                N/A
WVE H/P(F/S)=  3/ 7 WND WVE H/P(F/S)=  3/ 7

WILM HARBR 41108 NOT AVBL
27WRITEBCH 41037 1100            75 81  280/ 10/ 14 1014.7R
FRYING PAN 41013 NOT AVBL
SUNST NRSH 41024 1100            79     350/  4/  6 1014.7R
CAPRS NRSH 41029 1100            81     280/ 10/ 12   N/A
EDISTO     41004 1200            83 82  250/ 10/ 12 1015.0R
WVE H/P(F/S)=  4/ 6 WND WVE H/P(F/S)=  3/ 5 SWL H/P/D(F/S/D)=  3/ 6



..........OFFSHORE BUOYS BEYOND 100 NM OFFSHORE...........
.....IN A TRIANGLE---HAT TO BERMUDA TO BAHAMAS TO HAT.....


STATION/POSITION TIME  SKY/WX   TEMP    WIND        PRES    VSBY
                                AIR SEA DIR/SP/G
                 (UTC)          (F)     (DEG/KT/KT) (MB)    (MI)
150E HAT   41001 NOT AVBL
W BERMUDA  41048 1110            83 82  230/ 16/ 19 1019.0R
WVE H/P(F/S)=  6/ 6 WND WVE H/P(F/S)=  5/ 6 SWL H/P/D(F/S/D)=  2/ 60/10

ATLANTIC S 41049 1057            81 83  140/ 10/ 14 1023.3R
WVE H/P(F/S)=  3/ 8 WND WVE H/P(F/S)=  2/ 4 SWL H/P/D(F/S/D)=  3/140/ 8

E BAHAMAS  41046 1116            83 84  100/ 10/ 12 1020.9R
WVE H/P(F/S)=  4/ 8 WND WVE H/P(F/S)=  2/ 5 SWL H/P/D(F/S/D)=  3/120/ 8

NE BAHAMAS 41047 1111            83 84  200/ 10/ 12 1021.1R
WVE H/P(F/S)=  3/ 7 WND WVE H/P(F/S)=  2/ 4 SWL H/P/D(F/S/D)=  3/150/ 7

120E CANVRL41010 1200            83 83  210/ 14/ 16 1018.5F
WVE H/P(F/S)=  3/ 4 WND WVE H/P(F/S)=  2/ 4 SWL H/P/D(F/S/D)=  2/140/ 7


END



USA.gov is the U.S. government's official web portal to all federal, state and local government web resources and services.